+ View the NASA Portal
+ Center for Near-Earth Object Studies
IMPORTANT:
The SSD Announcement email list is now available. Major changes are coming in the near future, including possible hostname and/or URL changes. To be notified of such changes, subscribe to this email list.
Please visit
this page
for more details.
Don't show this message again
JPL Small-Body Database Browser
Search:
[
help
]
434329 (2004 JM13)
Classification:
Main-belt Asteroid
SPK-ID:
2434329
[
Ephemeris
|
Orbit Diagram
|
Orbital Elements
|
Mission Design
|
Physical Parameters
|
Discovery Circumstances
]
[ show orbit diagram ]
Orbital Elements at Epoch 2458600.5 (2019-Apr-27.0) TDB
Reference:
JPL 14
(heliocentric ecliptic J2000)
Element
Value
Uncertainty (1-sigma)
Units
e
.3328003670847656
2.1353e-07
a
2.629959400769101
9.5371e-08
au
q
1.754707946775114
6.2097e-07
au
i
29.05079643463662
1.4698e-05
deg
node
90.76230368703563
1.844e-05
deg
peri
81.37507231035163
4.2827e-05
deg
M
220.4642372832093
6.8534e-05
deg
t
p
2459204.316564837625
(2020-Dec-20.81656484)
0.00032843
TDB
period
1557.836923733588
4.27
8.4739e-05
2.32e-07
d
yr
n
.2310896567640768
1.257e-08
deg/d
Q
3.505210854763088
1.2711e-07
au
Orbit Determination Parameters
# obs. used (total)
295
data-arc span
9013 days (24.68 yr)
first obs. used
1995-02-26
last obs. used
2019-10-31
planetary ephem.
DE431
SB-pert. ephem.
SB431-N16
condition code
0
norm. resid. RMS
.54849
source
ORB
producer
Otto Matic
solution date
2019-Nov-08 15:40:09
Additional Information
Earth MOID
= .977602 au
Jupiter MOID
= 2.31642 au
T_jup
= 3.151
[ hide covariance matrix ]
Orbital Elements at Epoch 2457248.5 (2015-Aug-14.0) TDB
Reference:
JPL 14
(heliocentric ecliptic J2000)
Element
Value
Uncertainty (1-sigma)
Units
e
.3331819489148141
2.139e-07
q
1.753374448458783
6.2213e-07
au
t
p
2457647.004723980474
(2016-Sep-15.50472398)
0.0002466
TDB
node
90.78455438059245
1.8446e-05
deg
peri
81.38647767926682
4.2821e-05
deg
i
29.05040066947409
1.4692e-05
deg
Orbit Determination Parameters
# obs. used (total)
295
data-arc span
9013 days (24.68 yr)
first obs. used
1995-02-26
last obs. used
2019-10-31
planetary ephem.
DE431
SB-pert. ephem.
SB431-N16
condition code
0
norm. resid. RMS
.54849
source
ORB
producer
Otto Matic
solution date
2019-Nov-08 15:40:09
Additional Information
Jupiter MOID
= 2.31642 au
T_jup
= 3.151
Orbit Covariance (6×6)
e
q
tp
node
peri
i
e
4.575178777190624E-14
-1.329735283567304E-13
-4.411749438868149E-11
9.858597799371667E-13
-5.257384270908184E-12
-1.247961687502755E-12
q
-1.329735283567304E-13
3.870461820024089E-13
1.309822853263533E-10
-2.918707404800874E-12
1.588493495856059E-11
3.708952947985638E-12
tp
-4.411749438868149E-11
1.309822853263533E-10
6.081105521204493E-8
-1.26946222074294E-9
9.251452665400755E-9
1.676597427093053E-9
node
9.858597799371667E-13
-2.918707404800874E-12
-1.26946222074294E-9
3.402729112741131E-10
-4.58365407825565E-10
-1.851906395104779E-10
peri
-5.257384270908184E-12
1.588493495856059E-11
9.251452665400755E-9
-4.58365407825565E-10
1.833632499621266E-9
3.820938282260005E-10
i
-1.247961687502755E-12
3.708952947985638E-12
1.676597427093053E-9
-1.851906395104779E-10
3.820938282260005E-10
2.158623650027736E-10
[
Ephemeris
|
Orbit Diagram
|
Orbital Elements
|
Mission Design
|
Physical Parameters
|
Discovery Circumstances
]
Physical Parameter Table
Parameter
Symbol
Value
Units
Sigma
Reference
Notes
absolute magnitude
H
15.7
n/a
MPO360997
434329 (2004 JM13)
Discovered 2004-May-14 by NEAT at Palomar
Reference:
Last Updated:
2015-06-04
[
Ephemeris
|
Orbit Diagram
|
Orbital Elements
|
Mission Design
|
Physical Parameters
|
Discovery Circumstances
]
2019-Dec-16 11:01 UT
(server date/time)
Site Manager:
Ryan S. Park
Webmaster
:
Alan B. Chamberlin